EW3937 Weather Reports


Display with metric or nautical units.
time (UTC)temp
F
wind
direction
speed
MPH
gust
MPH
rain 1hr
in
rain 24hr
in
rain mn
in
humidity
%
barometer
mb
20260510174503 70 69 1.0 4.0 0.00 0.00 0.00 44 1015.5
20260510174004 70 75 1.0 3.0 0.00 0.00 0.00 50 1015.5
20260510173503 69 74 1.0 3.0 0.00 0.00 0.00 48 1015.6
20260510173003 69 75 1.0 3.0 0.00 0.00 0.00 48 1015.7
20260510172503 69 81 2.0 4.0 0.00 0.00 0.00 45 1015.7
20260510172218 69 79 2.0 5.0 0.00 0.00 0.00 46 1015.8
20260510171503 68 74 1.0 5.0 0.00 0.00 0.00 47 1015.6
20260510171003 68 82 1.0 5.0 0.00 0.00 0.00 48 1015.6
20260510170717 69 80 1.0 5.0 0.00 0.00 0.00 47 1015.5
20260510170004 68 48 1.0 4.0 0.00 0.00 0.00 51 1015.6
20260510165717 68 67 1.0 7.0 0.00 0.00 0.00 51 1015.7
20260510165003 67 57 1.0 7.0 0.00 0.00 0.00 51 1015.7
20260510164503 67 22 1.0 3.0 0.00 0.00 0.00 53 1015.8
20260510164003 67 13 1.0 4.0 0.00 0.00 0.00 53 1015.8
20260510163716 66 36 1.0 4.0 0.00 0.00 0.00 53 1015.8
20260510163003 66 42 0.0 3.0 0.00 0.00 0.00 53 1015.9
20260510162716 66 24 0.0 3.0 0.00 0.00 0.00 52 1016.0
20260510162003 66 354 1.0 3.0 0.00 0.00 0.00 54 1015.9
20260510161503 65 30 1.0 4.0 0.00 0.00 0.00 57 1015.9
20260510161003 65 29 0.0 4.0 0.00 0.00 0.00 54 1016.0
20260510160503 65 347 0.0 3.0 0.00 0.00 0.00 55 1016.0
20260510160003 64 24 1.0 2.0 0.00 0.00 0.00 57 1016.0
20260510155503 64 73 1.0 5.0 0.00 0.00 0.00 58 1016.1
20260510155003 64 62 0.0 5.0 0.00 0.00 0.00 57 1016.2
20260510154503 63 0 0.0 2.0 0.00 0.00 0.00 58 1016.2
20260510154003 63 0 0.0 2.0 0.00 0.00 0.00 58 1016.2
20260510153503 63 0 0.0 1.0 0.00 0.00 0.00 58 1016.2
20260510153004 62 242 0.0 1.0 0.00 0.00 0.00 60 1016.2
20260510152503 62 299 0.0 2.0 0.00 0.00 0.00 62 1016.3
20260510152003 61 42 0.0 3.0 0.00 0.00 0.00 61 1016.2
20260510151503 61 349 1.0 3.0 0.00 0.00 0.00 62 1016.3
20260510151003 60 286 1.0 2.0 0.00 0.00 0.00 64 1016.2
20260510150503 60 319 0.0 5.0 0.00 0.00 0.00 63 1016.1
20260510150004 59 9 1.0 5.0 0.00 0.00 0.00 64 1016.1
20260510145503 59 49 1.0 3.0 0.00 0.00 0.00 66 1016.2
20260510145003 58 49 1.0 4.0 0.00 0.00 0.00 65 1016.2
20260510144503 58 55 1.0 7.0 0.00 0.00 0.00 67 1016.3
20260510144003 57 49 0.0 7.0 0.00 0.00 0.00 67 1016.3
20260510143503 57 0 0.0 2.0 0.00 0.00 0.00 68 1016.2
20260510143003 56 0 0.0 3.0 0.00 0.00 0.00 67 1016.2
20260510142503 56 0 0.0 3.0 0.00 0.00 0.00 69 1016.2
20260510142219 56 0 0.0 2.0 0.00 0.00 0.00 70 1016.1
20260510141503 55 118 0.0 2.0 0.00 0.00 0.00 71 1016.1
20260510141003 54 89 1.0 3.0 0.00 0.00 0.00 73 1016.0
20260510140503 54 77 1.0 3.0 0.00 0.00 0.00 72 1016.1
20260510140003 52 82 1.0 4.0 0.00 0.00 0.00 74 1016.0
20260510135503 51 91 0.0 4.0 0.00 0.00 0.00 74 1016.0
20260510135003 51 0 0.0 4.0 0.00 0.00 0.00 74 1016.1
20260510134503 50 0 0.0 1.0 0.00 0.00 0.00 77 1016.1
20260510134003 49 0 0.0 1.0 0.00 0.00 0.00 77 1016.1
20260510133717 49 0 0.0 1.0 0.00 0.00 0.00 78 1016.1
20260510133003 49 105 0.0 2.0 0.00 0.00 0.00 78 1016.1
20260510132503 49 73 0.0 3.0 0.00 0.00 0.00 78 1016.0
20260510132003 48 76 0.0 4.0 0.00 0.00 0.00 78 1016.0
20260510131503 47 90 0.0 4.0 0.00 0.00 0.00 79 1015.9
20260510131003 47 98 1.0 3.0 0.00 0.00 0.00 80 1016.0
20260510130503 46 82 1.0 3.0 0.00 0.00 0.00 80 1016.0
20260510130003 46 91 0.0 3.0 0.00 0.00 0.00 80 1016.1
20260510125503 46 0 0.0 3.0 0.00 0.00 0.00 80 1016.0
20260510125003 46 0 0.0 3.0 0.00 0.00 0.00 80 1016.0
20260510124717 46 0 0.0 2.0 0.00 0.00 0.00 81 1016.1
20260510124003 46 0 0.0 3.0 0.00 0.00 0.00 81 1016.1
20260510123503 46 0 0.0 1.0 0.00 0.00 0.00 80 1016.2
20260510123218 46 0 0.0 3.0 0.00 0.00 0.00 80 1016.2
20260510122503 46 100 1.0 3.0 0.00 0.00 0.00 80 1016.2
20260510122003 46 111 1.0 4.0 0.00 0.00 0.00 80 1016.3
20260510121503 46 109 1.0 4.0 0.00 0.00 0.00 80 1016.3
20260510121003 46 103 1.0 6.0 0.00 0.00 0.00 80 1016.3
20260510120503 46 101 1.0 6.0 0.00 0.00 0.00 80 1016.3
20260510120004 46 104 1.0 5.0 0.00 0.00 0.00 80 1016.4
20260510115717 46 113 1.0 3.0 0.00 0.00 0.00 80 1016.4
20260510115218 46 106 1.0 4.0 0.00 0.00 0.00 80 1016.5
20260510114503 46 118 0.0 3.0 0.00 0.00 0.00 80 1016.5
20260510114003 46 0 0.0 3.0 0.00 0.00 0.00 79 1016.5
20260510113503 46 0 0.0 2.0 0.00 0.00 0.00 79 1016.6
20260510113003 46 102 0.0 2.0 0.00 0.00 0.00 79 1016.6
20260510112503 46 93 1.0 3.0 0.00 0.00 0.00 78 1016.7
20260510112003 46 96 1.0 3.0 0.00 0.00 0.00 79 1016.6
20260510111503 46 102 1.0 3.0 0.00 0.00 0.00 79 1016.7
20260510111003 46 103 1.0 3.0 0.00 0.00 0.00 79 1016.7
20260510110503 46 87 2.0 4.0 0.00 0.00 0.00 79 1016.7
20260510110005 47 83 1.0 6.0 0.00 0.00 0.00 78 1016.8
20260510105503 46 84 1.0 6.0 0.00 0.00 0.00 79 1016.8
20260510105003 46 87 0.0 4.0 0.00 0.00 0.00 81 1016.9
20260510104503 45 0 3.0 3.0 0.00 0.00 0.00 82 1016.9
20260510104003 44 0 1.0 1.0 0.00 0.00 0.00 83 1016.9
20260510103503 45 0 3.0 3.0 0.00 0.00 0.00 81 1016.9
20260510103003 45 0 3.0 3.0 0.00 0.00 0.00 81 1016.9
20260510102503 46 0 1.0 1.0 0.00 0.00 0.00 80 1017.0
20260510102217 46 0 4.0 4.0 0.00 0.00 0.00 80 1017.0
20260510101503 46 0 4.0 4.0 0.00 0.00 0.00 80 1017.0
20260510101003 46 0 2.0 2.0 0.00 0.00 0.00 82 1017.1
20260510100503 45 0 1.0 1.0 0.00 0.00 0.00 82 1017.1
20260510100004 45 0 1.0 1.0 0.00 0.00 0.00 81 1017.2
20260510095503 46 0 1.0 1.0 0.00 0.00 0.00 80 1017.2
20260510095003 46 0 2.0 2.0 0.00 0.00 0.00 79 1017.1
20260510094503 46 0 2.0 2.0 0.00 0.00 0.00 79 1017.1
20260510094003 47 0 0.0 0.0 0.00 0.00 0.00 78 1017.2
20260510093504 47 0 1.0 1.0 0.00 0.00 0.00 78 1017.3
20260510093003 47 0 1.0 1.0 0.00 0.00 0.00 80 1017.3
20260510092503 46 0 1.0 1.0 0.00 0.00 0.00 81 1017.4
20260510092003 45 0 1.0 1.0 0.00 0.00 0.00 81 1017.4
20260510091503 45 0 1.0 1.0 0.00 0.00 0.00 80 1017.4
20260510091003 46 0 1.0 1.0 0.00 0.00 0.00 81 1017.3
20260510090503 45 0 1.0 1.0 0.00 0.00 0.00 83 1017.4
20260510090217 44 0 1.0 1.0 0.00 0.00 0.00 84 1017.5
20260510085503 44 0 2.0 2.0 0.00 0.00 0.00 84 1017.5
20260510085003 44 0 2.0 2.0 0.00 0.00 0.00 82 1017.5
20260510084503 44 0 1.0 1.0 0.00 0.00 0.00 82 1017.5
20260510084003 45 0 1.0 1.0 0.00 0.00 0.00 80 1017.5
20260510083503 46 0 1.0 1.0 0.00 0.00 0.00 79 1017.5
20260510083003 46 0 2.0 2.0 0.00 0.00 0.00 80 1017.5
20260510082503 46 0 2.0 2.0 0.00 0.00 0.00 78 1017.6
20260510082003 47 0 1.0 1.0 0.00 0.00 0.00 77 1017.6
20260510081503 47 0 2.0 2.0 0.00 0.00 0.00 77 1017.6
20260510081003 47 0 2.0 2.0 0.00 0.00 0.00 78 1017.7
20260510080503 46 0 2.0 2.0 0.00 0.00 0.00 79 1017.7
20260510080003 46 0 2.0 2.0 0.00 0.00 0.00 79 1017.7
20260510075503 46 0 0.0 1.0 0.00 0.00 0.00 79 1017.7
20260510075003 46 0 0.0 1.0 0.00 0.00 0.00 79 1017.7
20260510074503 46 0 0.0 0.0 0.00 0.00 0.00 78 1017.8
20260510074218 47 0 0.0 1.0 0.00 0.00 0.00 77 1017.8
20260510073503 47 0 0.0 2.0 0.00 0.00 0.00 76 1017.8
20260510073003 47 100 0.0 2.0 0.00 0.00 0.00 76 1017.8
20260510072503 47 99 1.0 2.0 0.00 0.00 0.00 77 1017.8
20260510072003 47 104 1.0 3.0 0.00 0.00 0.00 77 1017.8
20260510071503 47 107 1.0 3.0 0.00 0.00 0.00 77 1017.7
20260510071003 47 101 1.0 3.0 0.00 0.00 0.00 77 1017.7
20260510070717 47 100 0.0 3.0 0.00 0.00 0.00 78 1017.8
20260510070004 46 0 0.0 2.0 0.00 0.00 0.00 80 1017.8
20260510065503 46 0 0.0 1.0 0.00 0.00 0.00 80 1017.8
20260510065218 46 0 0.0 1.0 0.00 0.00 0.00 80 1017.8
20260510064503 46 0 0.0 1.0 0.00 0.00 0.00 80 1017.9
20260510064003 46 0 0.0 1.0 0.00 0.00 0.00 80 1018.0
20260510063503 46 0 0.0 1.0 0.00 0.00 0.00 81 1018.1
20260510063003 46 0 0.0 1.0 0.00 0.00 0.00 80 1018.1
20260510062504 46 0 0.0 1.0 0.00 0.00 0.00 80 1018.0
20260510062003 46 0 0.0 1.0 0.00 0.00 0.00 80 1018.1
20260510061503 46 0 0.0 0.0 0.00 0.00 0.00 81 1018.2
20260510061218 46 0 0.0 0.0 0.00 0.00 0.00 81 1018.2
20260510060716 46 0 0.0 0.0 0.00 0.00 0.00 82 1018.2
20260510060003 46 146 0.0 2.0 0.00 0.00 0.00 82 1018.3
20260510055503 46 145 1.0 2.0 0.00 0.00 0.00 82 1018.3
20260510055003 46 144 0.0 2.0 0.00 0.00 0.00 82 1018.3
20260510054503 46 143 0.0 2.0 0.00 0.00 0.00 81 1018.3
20260510054217 46 0 0.0 2.0 0.00 0.00 0.00 81 1018.3
20260510053503 46 0 0.0 0.0 0.00 0.00 0.00 82 1018.4
20260510053003 46 0 0.0 0.0 0.00 0.00 0.00 84 1018.5
20260510052503 45 0 0.0 0.0 0.00 0.00 0.00 83 1018.5
20260510052003 46 0 0.0 0.0 0.00 0.00 0.00 81 1018.5
20260510051503 46 0 0.0 0.0 0.00 0.00 0.00 80 1018.5
20260510051003 46 0 0.0 0.0 0.00 0.00 0.00 79 1018.5
20260510050503 47 0 0.0 0.0 0.00 0.00 0.00 78 1018.5
20260510050003 48 0 0.0 0.0 0.00 0.00 0.00 77 1018.6
20260510045503 48 0 0.0 0.0 0.00 0.00 0.00 78 1018.6
20260510045003 48 0 0.0 1.0 0.00 0.00 0.00 76 1018.8
20260510044503 49 0 0.0 1.0 0.00 0.00 0.00 75 1018.7
20260510044003 50 0 0.0 0.0 0.00 0.00 0.00 77 1018.7
20260510043503 49 0 0.0 0.0 0.00 0.00 0.00 77 1018.7
20260510043003 49 0 0.0 0.0 0.00 0.00 0.00 78 1018.7
20260510042718 49 0 0.0 0.0 0.00 0.00 0.00 79 1018.8
20260510042217 48 0 0.0 0.0 0.00 0.00 0.00 80 1018.8
20260510041718 48 0 0.0 2.0 0.00 0.00 0.00 79 1018.7
20260510041003 48 0 0.0 2.0 0.00 0.00 0.00 79 1018.7
20260510040503 48 0 0.0 0.0 0.00 0.00 0.00 78 1018.6
20260510040217 48 0 0.0 0.0 0.00 0.00 0.00 79 1018.6
20260510035503 49 0 0.0 2.0 0.00 0.00 0.00 78 1018.6
20260510035217 49 0 0.0 2.0 0.00 0.00 0.00 78 1018.5
20260510034503 50 0 0.0 1.0 0.00 0.00 0.00 77 1018.6
20260510034217 50 0 0.0 1.0 0.00 0.00 0.00 77 1018.5
20260510033718 50 0 0.0 1.0 0.00 0.00 0.00 76 1018.4
20260510033003 52 146 0.0 2.0 0.00 0.00 0.00 74 1018.4
20260510032718 52 146 1.0 2.0 0.00 0.00 0.00 74 1018.4
20260510032003 54 147 0.0 3.0 0.00 0.00 0.00 71 1018.5
20260510031503 55 0 0.0 3.0 0.00 0.00 0.00 69 1018.4
20260510031003 56 0 0.0 1.0 0.00 0.00 0.00 66 1018.4
20260510030503 58 0 0.0 1.0 0.00 0.00 0.00 64 1018.4
20260510030004 60 0 0.0 1.0 0.00 0.00 0.00 61 1018.4
20260510025503 61 0 0.0 0.0 0.00 0.00 0.00 57 1018.3
20260510025003 62 0 0.0 0.0 0.00 0.00 0.00 52 1018.3
20260510024503 63 0 0.0 0.0 0.00 0.00 0.00 50 1018.4
20260510024003 64 0 0.0 0.0 0.00 0.00 0.00 48 1018.4
20260510023503 64 0 0.0 0.0 0.00 0.00 0.00 47 1018.4
20260510023219 64 0 0.0 1.0 0.00 0.00 0.00 48 1018.4
20260510022503 65 0 0.0 1.0 0.00 0.00 0.00 46 1018.3
20260510022003 66 0 0.0 1.0 0.00 0.00 0.00 44 1018.4
20260510021503 66 0 0.0 1.0 0.00 0.00 0.00 42 1018.4
20260510021003 67 328 0.0 1.0 0.00 0.00 0.00 42 1018.4
20260510020503 67 326 1.0 2.0 0.00 0.00 0.00 41 1018.5
20260510020004 67 326 1.0 3.0 0.00 0.00 0.00 42 1018.5
20260510015503 68 332 1.0 3.0 0.00 0.00 0.00 41 1018.5
20260510015003 68 336 0.0 3.0 0.00 0.00 0.00 41 1018.6
20260510014503 69 0 0.0 3.0 0.00 0.00 0.00 41 1018.7
20260510014003 69 0 0.0 1.0 0.00 0.00 0.00 43 1018.7
20260510013503 69 0 0.0 2.0 0.00 0.00 0.00 42 1018.7
20260510013218 68 0 0.0 2.0 0.00 0.00 0.00 43 1018.7
20260510012504 68 0 0.0 2.0 0.00 0.00 0.00 41 1018.8
20260510012003 68 0 0.0 2.0 0.00 0.00 0.00 39 1018.8
20260510011503 69 0 0.0 3.0 0.00 0.00 0.00 42 1018.8
20260510011003 69 0 0.0 3.0 0.00 0.00 0.00 41 1018.8
20260510010503 69 310 0.0 3.0 0.00 0.00 0.00 39 1018.9
20260510010004 69 282 1.0 3.0 0.00 0.00 0.00 39 1019.0
20260510005503 69 305 1.0 5.0 0.00 0.00 0.00 39 1018.9
20260510005217 70 307 0.0 5.0 0.00 0.00 0.00 38 1018.9
20260510004716 71 0 0.0 4.0 0.00 0.00 0.00 37 1018.9
20260510004003 70 229 1.0 2.0 0.00 0.00 0.00 37 1019.0
20260510003503 70 231 1.0 3.0 0.00 0.00 0.00 36 1019.0
20260510003003 70 235 2.0 4.0 0.00 0.00 0.00 34 1019.0
20260510002503 70 228 1.0 4.0 0.00 0.00 0.00 34 1019.0
20260510002003 70 220 1.0 4.0 0.00 0.00 0.00 36 1019.1
20260510001503 70 224 0.0 4.0 0.00 0.00 0.00 34 1019.0
20260510001003 71 248 0.0 1.0 0.00 0.00 0.00 34 1019.1
20260510000503 71 246 1.0 3.0 0.00 0.00 0.00 35 1019.1
20260510000219 70 229 1.0 4.0 0.00 0.00 0.00 35 1019.1
20260509235503 70 231 0.0 4.0 0.00 0.00 0.00 33 1019.1
20260509235217 71 0 0.0 3.0 0.00 0.00 0.00 34 1019.1
20260509234503 70 145 1.0 3.0 0.00 0.00 0.00 37 1019.1
20260509234217 70 94 1.0 2.0 0.00 0.00 0.00 36 1019.1
20260509233503 70 100 1.0 3.0 0.00 0.00 0.00 35 1019.2
20260509233003 70 213 2.0 5.0 0.00 0.00 0.00 35 1019.2
20260509232503 69 225 2.0 6.0 0.00 0.00 0.00 35 1019.2
20260509232003 70 228 1.0 7.0 0.00 0.00 0.00 34 1019.1
20260509231503 70 230 1.0 7.0 0.00 0.00 0.00 36 1019.1
20260509231003 69 353 1.0 2.0 0.00 0.00 0.00 36 1019.3
20260509230503 69 343 1.0 4.0 0.00 0.00 0.00 35 1019.3
20260509230003 70 351 2.0 4.0 0.00 0.00 0.00 35 1019.3
20260509225503 70 247 2.0 6.0 0.00 0.00 0.00 34 1019.4
20260509225003 70 240 1.0 6.0 0.00 0.00 0.00 37 1019.4
20260509224503 70 221 1.0 5.0 0.00 0.00 0.00 36 1019.4
20260509224003 70 247 1.0 5.0 0.00 0.00 0.00 35 1019.5
20260509223503 70 27 1.0 3.0 0.00 0.00 0.00 36 1019.6
20260509223003 69 66 1.0 3.0 0.00 0.00 0.00 35 1019.7
20260509222503 69 20 1.0 3.0 0.00 0.00 0.00 33 1019.8
20260509222003 69 255 1.0 2.0 0.00 0.00 0.00 33 1019.7
20260509221503 69 308 1.0 5.0 0.00 0.00 0.00 33 1019.7
20260509221008 69 310 2.0 5.0 0.00 0.00 0.00 33 1019.8
20260509220503 69 256 2.0 5.0 0.00 0.00 0.00 34 1019.8
20260509220003 69 245 1.0 5.0 0.00 0.00 0.00 36 1019.8
20260509215503 68 249 1.0 5.0 0.00 0.00 0.00 35 1019.9
20260509215003 68 273 1.0 4.0 0.00 0.00 0.00 33 1019.9
20260509214503 69 296 1.0 5.0 0.00 0.00 0.00 36 1019.9
20260509214003 69 285 1.0 5.0 0.00 0.00 0.00 35 1020.0
20260509213503 69 355 1.0 3.0 0.00 0.00 0.00 35 1019.9
20260509213216 69 337 1.0 3.0 0.00 0.00 0.00 36 1020.0
20260509212503 68 355 1.0 4.0 0.00 0.00 0.00 37 1020.1
20260509212003 68 45 1.0 4.0 0.00 0.00 0.00 36 1020.2
20260509211503 68 32 1.0 4.0 0.00 0.00 0.00 33 1020.2
20260509211003 68 346 1.0 4.0 0.00 0.00 0.00 36 1020.3
20260509210503 68 340 1.0 6.0 0.00 0.00 0.00 34 1020.3
20260509210003 68 333 1.0 6.0 0.00 0.00 0.00 36 1020.4
20260509205503 68 326 1.0 5.0 0.00 0.00 0.00 38 1020.4
20260509205003 68 14 1.0 5.0 0.00 0.00 0.00 39 1020.5
20260509204503 68 2 2.0 5.0 0.00 0.00 0.00 37 1020.5
20260509204009 68 311 2.0 5.0 0.00 0.00 0.00 38 1020.5
20260509203503 68 326 1.0 5.0 0.00 0.00 0.00 39 1020.6
20260509203003 69 321 1.0 5.0 0.00 0.00 0.00 39 1020.6
20260509202503 68 272 1.0 5.0 0.00 0.00 0.00 41 1020.6
20260509202003 67 264 1.0 5.0 0.00 0.00 0.00 38 1020.7
20260509201503 68 258 1.0 5.0 0.00 0.00 0.00 40 1020.7
20260509201003 68 234 1.0 3.0 0.00 0.00 0.00 40 1020.7
20260509200717 67 222 1.0 7.0 0.00 0.00 0.00 41 1020.8
20260509200004 67 171 2.0 7.0 0.00 0.00 0.00 40 1020.9
20260509195503 66 205 2.0 7.0 0.00 0.00 0.00 39 1020.9
20260509195003 66 220 2.0 9.0 0.00 0.00 0.00 43 1021.0
20260509194503 66 213 2.0 9.0 0.00 0.00 0.00 42 1020.9
20260509194003 66 231 3.0 5.0 0.00 0.00 0.00 40 1021.0
20260509193503 66 224 3.0 9.0 0.00 0.00 0.00 40 1021.1
20260509193003 66 215 2.0 10.0 0.00 0.00 0.00 38 1021.1
20260509192503 67 221 1.0 10.0 0.00 0.00 0.00 36 1021.2
20260509192003 66 247 2.0 5.0 0.00 0.00 0.00 40 1021.3
20260509191503 66 241 2.0 5.0 0.00 0.00 0.00 40 1021.3
20260509191003 65 238 2.0 7.0 0.00 0.00 0.00 39 1021.4
20260509190503 65 216 2.0 8.0 0.00 0.00 0.00 40 1021.4
20260509190004 65 210 2.0 8.0 0.00 0.00 0.00 41 1021.4
20260509185503 66 223 3.0 7.0 0.00 0.00 0.00 45 1021.5
20260509185003 64 231 3.0 10.0 0.00 0.00 0.00 45 1021.4
20260509184503 64 243 3.0 10.0 0.00 0.00 0.00 46 1021.5
20260509184003 64 245 3.0 7.0 0.00 0.00 0.00 47 1021.5
20260509183503 64 232 3.0 8.0 0.00 0.00 0.00 48 1021.5
20260509183003 63 226 3.0 10.0 0.00 0.00 0.00 44 1021.5
20260509182503 63 225 3.0 10.0 0.00 0.00 0.00 47 1021.5
20260509182217 63 226 3.0 8.0 0.00 0.00 0.00 48 1021.5
20260509181503 63 228 2.0 8.0 0.00 0.00 0.00 47 1021.5
20260509181003 64 229 2.0 6.0 0.00 0.00 0.00 49 1021.5
20260509180718 64 224 2.0 7.0 0.00 0.00 0.00 49 1021.5
20260509180003 64 228 2.0 7.0 0.00 0.00 0.00 48 1021.5
20260509175503 64 214 2.0 7.0 0.00 0.00 0.00 52 1021.5
20260509175003 63 219 2.0 7.0 0.00 0.00 0.00 50 1021.6